Weather History for Wink, TX

Change the Weather History Date:

Sunday, June 30, 2013

  Actual Average Record
Temperature  
Mean Temperature 86 °F -  
Max Temperature 97 °F 95 °F 109 °F (2005)
Min Temperature 75 °F 69 °F 61 °F (1985)
Cooling Degree Days 20    
Growing Degree Days 36 (Base 50)    
Moisture  
Dew Point 54 °F    
Average Humidity 36    
Maximum Humidity 55    
Minimum Humidity 22    
Precipitation  
Precipitation 0.00 in - - ()
Sea Level Pressure  
Sea Level Pressure 29.84 in    
Wind  
Wind Speed 11 mph (ENE)    
Max Wind Speed 24 mph    
Max Gust Speed 36 mph    
Visibility 10 miles    
Events      
Averages and records for this station are not official NWS values.
T = Trace of Precipitation, MM = Missing Value Source: NWS Daily Summary

Daily Weather History Graph

Daily Weather History Graph

Search for Another Location

Airport:

Trip Planner

Search our weather history database for the weather conditions in past years. The results will help you decide how hot, cold, wet, or windy it might be!

Date:

Astronomy

Jun. 30, 2013 Rise Set
Actual Time 6:50 AM CDT 9:02 PM CDT
Civil Twilight 6:22 AM CDT 9:30 PM CDT
Nautical Twilight 5:48 AM CDT 10:04 PM CDT
Astronomical Twilight 5:11 AM CDT 10:41 PM CDT
Moon 1:33 AM CDT (6/30) 2:34 PM CDT (6/30)
Length of Visible Light 15h 07m
Length of Day
14h 11m
Last Quarter, 45% of the Moon is Illuminated
Jun 30
Last Quarter
Jul 8
New
Jul 15
First Quarter
Jul 22
Full
Jul 29
Last Quarter

Hourly Weather History & Observations

Time (CDT) Temp. Heat Index Dew Point Humidity Pressure Visibility Wind Dir Wind Speed Gust Speed Precip Events Conditions
12:53 AM 82.0 °F 81.4 °F 55.0 °F 39% 29.82 in 10.0 mi NE 24.2 mph 35.7 mph N/A   Scattered Clouds
1:53 AM 82.0 °F - 52.0 °F 35% 29.78 in 10.0 mi NNE 5.8 mph - N/A   Clear
2:53 AM 81.0 °F - 51.1 °F 35% 29.83 in 10.0 mi North 15.0 mph - N/A   Clear
3:53 AM 81.0 °F - 51.1 °F 35% 29.83 in 10.0 mi East 4.6 mph - N/A   Partly Cloudy
4:53 AM 79.0 °F - 55.0 °F 44% 29.86 in 10.0 mi ENE 15.0 mph 24.2 mph 0.00 in   Partly Cloudy
5:53 AM 75.0 °F - 57.9 °F 55% 29.85 in 10.0 mi NE 9.2 mph - N/A   Clear
6:53 AM 75.0 °F - 57.0 °F 53% 29.85 in 10.0 mi WSW 3.5 mph - N/A   Clear
7:53 AM 75.0 °F - 57.0 °F 53% 29.85 in 10.0 mi WSW 3.5 mph - N/A   Clear
8:53 AM 75.9 °F - 57.0 °F 52% 29.89 in 10.0 mi ENE 4.6 mph - 0.00 in   Mostly Cloudy
9:53 AM 79.0 °F - 57.0 °F 47% 29.92 in 10.0 mi NNE 6.9 mph - 0.00 in   Clear
10:53 AM 81.0 °F 81.0 °F 57.0 °F 44% 29.92 in 10.0 mi ENE 4.6 mph - N/A   Clear
11:53 AM 84.9 °F 83.9 °F 57.0 °F 38% 29.92 in 10.0 mi ESE 11.5 mph - N/A   Clear
12:53 PM 90.0 °F 88.6 °F 57.0 °F 33% 29.90 in 10.0 mi ENE 10.4 mph - N/A   Clear
1:53 PM 90.0 °F 87.9 °F 55.0 °F 30% 29.88 in 10.0 mi Variable 3.5 mph - N/A   Clear
2:53 PM 93.0 °F 91.1 °F 55.0 °F 28% 29.85 in 10.0 mi NE 11.5 mph 17.3 mph N/A   Clear
3:53 PM 93.0 °F 90.8 °F 54.0 °F 27% 29.83 in 10.0 mi Variable 3.5 mph - N/A   Partly Cloudy
4:53 PM 93.9 °F 91.4 °F 53.1 °F 25% 29.81 in 10.0 mi Variable 4.6 mph - N/A   Scattered Clouds
5:53 PM 96.1 °F - 52.0 °F 22% 29.79 in 10.0 mi ESE 11.5 mph - N/A   Scattered Clouds
6:53 PM 95.0 °F - 52.0 °F 23% 29.77 in 10.0 mi East 8.1 mph - N/A   Clear
7:53 PM 93.0 °F - 51.1 °F 24% 29.76 in 10.0 mi ESE 12.7 mph - N/A   Clear
8:53 PM 90.0 °F - 52.0 °F 27% 29.79 in 10.0 mi East 11.5 mph - N/A   Clear
9:53 PM 88.0 °F 85.9 °F 54.0 °F 31% 29.83 in 10.0 mi ESE 10.4 mph - N/A   Clear
10:53 PM 84.9 °F 83.3 °F 54.0 °F 34% 29.85 in 10.0 mi ESE 9.2 mph - N/A   Clear
11:53 PM 82.9 °F 81.9 °F 54.0 °F 37% 29.86 in 10.0 mi ESE 8.1 mph - N/A   Clear